Location: Unspecified
(41.5000°N, 0.0000°E)
Time: 17:03:26
(UTC+00:00)

Courier 1B Rocket - Pass Details

Date: 27 June 2019
Orbit: 920 x 1202 km, 28.2° (Epoch: 16 July)

Event Time Altitude Azimuth Distance (km) Brightness Sun altitude
Rises 02:25:20 0° 231° (SW) 4,010 - -17.3°
Reaches altitude 10° 02:28:49 10° 218° (SW) 3,008 - -16.9°
Exits shadow 02:32:22 21° 191° (SSW) 2,270 6.4 -16.5°
Maximum altitude 02:34:23 23° 169° (SSE) 2,115 6.4 -16.3°
Drops below altitude 10° 02:39:41 10° 119° (ESE) 2,853 7.5 -15.7°
Sets 02:42:53 0° 106° (ESE) 3,757 8.4 -15.3°
